Overview Statistics Trail Chart Weather Telemetry Raw packets
 

This is the latest recevied weather packets stored in our database for station/object K4PAD. If no packets are shown the sender has not sent any weather packets the latest 10 day(s).

<< 10 11 12 13 14 15 16 >>
Time Temp. Humidity Pressure Rain* Wind** Luminosity Snow
1788535736 31.11° C 75% 1017.4 hPa 0 mm - 538 W/m² -
1788535430 31.11° C 77% 1017.6 hPa 0 mm - 1089 W/m² -
1788535130 31.11° C 76% 1017.5 hPa 0 mm - 881 W/m² -
1788534830 31.11° C 74% 1017.7 hPa 0 mm - 758 W/m² -
1788534525 31.11° C 74% 1017.4 hPa 0 mm - 496 W/m² -
1788534221 30.56° C 76% 1017.4 hPa 0 mm - 747 W/m² -
1788533918 30° C 78% 1017.3 hPa 0 mm - 659 W/m² -
1788533615 29.44° C 82% 1017.4 hPa 0 mm - 638 W/m² -
1788533310 29.44° C 82% 1017.5 hPa 0 mm - 469 W/m² -
1788533006 29.44° C 81% 1017.3 hPa 0 mm - 467 W/m² -
1788532701 28.89° C 83% 1017.4 hPa 0 mm - 386 W/m² -
1788532397 28.89° C 83% 1017.5 hPa 0 mm - 341 W/m² -
1788532094 28.89° C 85% 1017.4 hPa 0 mm - 327 W/m² -
1788531790 28.89° C 85% 1017.3 hPa 0 mm - 299 W/m² -
1788531484 28.33° C 86% 1017.1 hPa 0 mm - 285 W/m² -
1788531180 28.33° C 86% 1017.2 hPa 0 mm - 285 W/m² -
1788530875 28.33° C 86% 1017.1 hPa 0 mm - 282 W/m² -
1788530571 28.33° C 86% 1017.1 hPa 0 mm - 278 W/m² -
1788530269 28.33° C 87% 1017.2 hPa 0 mm - 265 W/m² -
1788529965 27.78° C 88% 1017.1 hPa 0 mm - 255 W/m² -
1788529661 27.78° C 89% 1017.1 hPa 0 mm - 261 W/m² -
1788529360 27.78° C 90% 1017.2 hPa 0 mm - 223 W/m² -
1788529055 27.78° C 92% 1017.2 hPa 0 mm - 210 W/m² -
1788528751 27.78° C 92% 1017 hPa 0 mm - 205 W/m² -
1788528450 27.22° C 94% 1017.2 hPa 0 mm - 164 W/m² -

* Rain latest hour (hover to see other rain measurements)
** Current wind speed in m/s (hover to see current wind gust speed)